CDT,Max TemperatureF,Mean TemperatureF,Min TemperatureF,Max Dew PointF,MeanDew PointF,Min DewpointF,Max Humidity, Mean Humidity, Min Humidity, Max Sea Level PressureIn, Mean Sea Level PressureIn, Min Sea Level PressureIn, Max VisibilityMiles, Mean VisibilityMiles, Min VisibilityMiles, Max Wind SpeedMPH, Mean Wind SpeedMPH, Max Gust SpeedMPH,PrecipitationIn, CloudCover, Events, WindDirDegrees
2013-8-1,87,76,66,69,65,58,96,74,38,30.06,30.02,29.99,10,8,2,12,5,18,0.00,1,,311
2013-8-2,87,74,62,71,65,61,100,76,43,30.04,30.00,29.94,10,9,5,13,3,,0.05,1,Rain,190
2013-8-3,87,78,68,73,69,66,95,80,57,30.08,30.00,29.94,10,8,4,12,3,,0.01,4,Rain,307
2013-8-4,81,72,62,66,61,56,92,70,41,30.18,30.13,30.08,10,10,7,9,5,,0.00,0,,18
2013-8-5,82,70,59,67,62,58,96,77,45,30.11,30.03,29.95,10,8,0,14,3,18,0.00,6,Fog,164
2013-8-6,86,78,70,74,70,67,95,82,61,29.96,29.92,29.89,10,9,3,10,3,,0.01,4,Rain,169
2013-8-7,86,78,70,74,72,69,96,84,59,29.94,29.90,29.87,10,7,0,9,3,,0.00,4,Fog,201
2013-8-8,86,76,67,75,72,66,96,85,66,29.97,29.92,29.87,10,7,0,10,2,,0.00,5,Fog-Rain-Thunderstorm,213
2013-8-9,82,77,72,74,72,70,95,86,67,30.05,29.99,29.92,10,8,3,8,2,,0.01,4,Rain,322
2013-8-10,87,79,71,71,69,64,95,76,46,30.13,30.08,30.05,10,8,2,7,1,,0.00,5,Rain,343
2013-8-11,87,76,65,69,65,62,93,70,45,30.14,30.10,30.06,10,10,10,8,2,,0.00,1,,320
2013-8-12,85,76,67,75,71,66,95,88,69,30.06,29.98,29.91,10,8,0,21,1,34,2.28,6,Fog-Rain-Thunderstorm,227
2013-8-13,82,72,62,70,66,56,95,81,55,30.10,29.99,29.92,10,8,3,17,6,23,0.11,2,Rain,329
2013-8-14,75,64,54,56,53,49,92,69,40,30.19,30.15,30.10,10,10,10,14,7,20,0.00,0,,11
2013-8-15,77,64,53,58,54,51,94,71,44,30.16,30.12,30.07,10,10,10,12,4,,0.00,0,,22
2013-8-16,80,67,55,62,58,54,94,74,46,30.13,30.11,30.08,10,10,7,12,4,,0.00,2,,15
2013-8-17,79,72,64,66,63,60,94,80,56,30.18,30.13,30.10,10,9,2,12,5,,0.11,6,Rain-Thunderstorm,13
2013-8-18,85,75,65,68,65,60,94,75,44,30.16,30.11,30.07,10,9,5,7,2,,0.00,4,,49
2013-8-19,86,74,62,70,65,61,96,78,47,30.14,30.09,30.04,10,7,0,6,0,,0.00,2,Fog,150
2013-8-20,89,77,65,72,67,64,96,76,43,30.13,30.09,30.05,10,7,0,6,1,,0.00,2,Fog,119
2013-8-21,90,78,65,73,69,64,96,77,45,30.15,30.10,30.06,10,8,0,7,1,,0.00,1,Fog,194
2013-8-22,91,78,66,75,70,65,96,77,50,30.12,30.08,30.01,10,7,0,9,2,,0.00,1,Fog,215
2013-8-23,89,80,70,72,70,67,95,78,48,30.10,30.07,30.03,10,8,1,9,3,,0.00,2,Thunderstorm,16
2013-8-24,90,77,64,70,65,58,95,72,34,30.22,30.18,30.11,10,9,3,9,3,,0.00,0,,74
2013-8-25,91,74,59,74,67,58,96,77,44,30.29,30.24,30.20,10,8,1,8,1,,0.00,1,,146
2013-8-26,91,79,67,74,71,66,96,79,50,30.25,30.18,30.10,10,6,0,10,3,,0.00,1,Fog,202
2013-8-27,93,82,72,75,73,70,94,76,51,30.12,30.06,30.01,10,9,3,10,5,,0.00,0,,221
2013-8-28,93,80,68,73,70,64,95,69,37,30.04,30.01,29.98,10,9,3,12,6,17,0.00,0,,251
2013-8-29,93,82,70,77,73,68,94,78,57,30.03,29.99,29.96,10,8,4,7,1,,0.00,1,,347
2013-8-30,96,83,70,77,72,69,96,72,43,29.97,29.92,29.85,10,7,0,10,2,,0.00,2,Fog,229
2013-8-31,97,85,73,76,73,67,94,71,42,29.88,29.83,29.75,10,10,2,25,5,48,0.28,1,Rain-Thunderstorm,206